Voltar ao catálogo

FENGYUN 1C DEB

LostPO
NORAD 31858·DEBRIS·🇨🇳 China

Lançado May 10, 1999 de Taiyuan Satellite Launch Center

Loading…

Próximas Passagens (próximas 24 horas)

TLE

ObsoletoSource: Space-Track

Época: Aug 18, 2017, 22:01 UTC

1 31858U 99025CJY 17230.91756475  .00000093  00000-0  11308-3 0  9995
2 31858  97.6319 119.2854 0366565 251.2096 104.8956 13.57280047505154

Acompanhe FENGYUN 1C DEB em tempo real com AllMySat

Download on the App Store